Flag for United Kingdom Weather past 2 weeks in Glasgow, Scotland, United Kingdom

54 °F

Light rain. Mostly cloudy.

Feels Like: 51 °F
Forecast: 41 / 54 °F
Wind: 9 mph from West

Location: Glasgow Airport

Current Time: Oct 7, 2015 at 4:34:48 AM

Latest Report: Oct 7, 2015 at 4:20 AM

Visibility: N/A

Pressure: 29.62 "Hg

Humidity: 88%

Dew point: 50 °F

Location of GlasgowLocation

Historic Weather in Glasgow — Graph


Glasgow temperature yesterday

Maximum temperature yesterday: 64 °F (at 12:20 PM)
Minimum temperature yesterday: 50 °F (at 9:20 PM)
Average temperature yesterday: 59 °F

Past Weeks' High & Low Weather Summary

High68 °F (Sep 30, 4:20 PM)100% (Sep 22, 4:20 AM)30.66 "Hg (Sep 22, 4:20 AM)
Low32 °F (Oct 3, 2:20 AM)56% (Sep 29, 4:20 PM)29.36 "Hg (Oct 6, 4:20 AM)
Average51 °F87%30.10 "Hg
* Reported Sep 22 3:20 AM — Oct 7 3:20 AM, Glasgow, Weather by CustomWeather, © 2015

Note: Actual official high and low records may vary slightly from our data, if they occured in-between our weather recording intervals... More about our weather records


Glasgow weather history for previous 24 hours

Time TempWeatherWind HumidityBarometerVisibility
3:20 AM
Wed, Oct 7
54 °FPassing clouds.8 mph94%29.59 "HgN/A
2:50 AM54 °FMostly cloudy.7 mph94%29.59 "HgN/A
2:20 AM54 °FLow clouds.6 mph100%29.59 "Hg5 mi
1:50 AM54 °FOvercast.3 mph100%29.56 "Hg5 mi
1:20 AM52 °FPassing clouds.2 mph100%29.56 "Hg5 mi
12:50 AM52 °FCool.2 mph100%29.56 "Hg5 mi
12:20 AM52 °FCool.1 mph100%29.53 "Hg6 mi
11:50 PM
Tue, Oct 6
52 °FCool.3 mph100%29.53 "Hg4 mi
10:50 PM50 °FFog.2 mph100%29.53 "Hg1 mi
10:20 PM50 °FLight fog.3 mph100%29.50 "Hg5 mi
9:50 PM52 °FFog.1 mph100%29.50 "Hg5 mi
9:20 PM50 °FFog.2 mph100%29.50 "Hg4 mi
8:50 PM52 °FFog.1 mph100%29.47 "Hg4 mi
8:20 PM54 °FCool.2 mph94%29.47 "Hg5 mi
7:50 PM54 °FCool.3 mph94%29.47 "HgN/A
7:20 PM59 °FCool.5 mph88%29.45 "HgN/A
6:50 PM59 °FCool.3 mph82%29.45 "HgN/A
6:20 PM57 °FCool.5 mph88%29.45 "HgN/A
5:50 PM61 °FPartly sunny.6 mph83%29.42 "HgN/A
5:20 PM63 °FOvercast.6 mph77%29.42 "HgN/A
4:50 PM63 °FOvercast.7 mph83%29.42 "HgN/A
4:20 PM61 °FOvercast.8 mph83%29.42 "HgN/A
3:50 PM61 °FOvercast.10 mph88%29.39 "HgN/A
3:20 PM63 °FPartly sunny.8 mph83%29.39 "HgN/A
2:50 PM63 °FPartly sunny.8 mph83%29.39 "HgN/A
2:20 PM63 °FOvercast.12 mph83%29.39 "HgN/A
1:50 PM63 °FBroken clouds.10 mph83%29.39 "HgN/A
1:20 PM63 °FPartly sunny.9 mph88%29.39 "HgN/A
12:50 PM63 °FMostly cloudy.6 mph88%29.39 "HgN/A
12:20 PM64 °FPartly sunny.2 mph83%29.39 "HgN/A
11:50 AM63 °FBroken clouds.2 mph88%29.39 "HgN/A
11:20 AM63 °FBroken clouds.1 mph94%29.39 "HgN/A
10:50 AM61 °FLight rain. Broken clouds.5 mph100%29.36 "Hg4 mi
10:20 AM61 °FBroken clouds.5 mph94%29.36 "Hg6 mi
9:50 AM59 °FBroken clouds.5 mph100%29.36 "Hg6 mi
9:20 AM59 °FLight rain. Broken clouds.5 mph100%29.36 "Hg6 mi
8:50 AM59 °FDrizzle. Partly sunny.5 mph94%29.36 "Hg2 mi
8:20 AM59 °FPartly cloudy.6 mph94%29.36 "Hg2 mi
7:50 AM59 °FDrizzle. Mostly cloudy.7 mph94%29.36 "Hg3 mi
7:20 AM59 °FRain. Passing clouds.7 mph100%29.36 "Hg2 mi
6:50 AM59 °FLight rain. Passing clouds.8 mph100%29.36 "Hg2 mi
6:20 AM59 °FLight rain. Mostly cloudy.7 mph100%29.36 "Hg4 mi
5:20 AM59 °FPartly cloudy.7 mph100%29.36 "HgN/A
4:50 AM59 °FPassing clouds.8 mph100%29.36 "Hg6 mi
4:20 AM59 °FDrizzle. Mostly cloudy.7 mph100%29.36 "Hg2 mi
Weather by CustomWeather, © 2015

See weather overviewHow to use our weather pages